| time (UTC) | temp C | wind direction | speed KPH | gust KPH | rain 1hr cm | rain 24hr cm | rain mn cm | humidity % | barometer mb |
| 20260906110100 | 23 | 0 | 0.0 | 1.6 | 0.00 | 0.00 | 0.00 | 97 | 1013.0 |
| 20260906104602 | 23 | 180 | 1.6 | 4.8 | 0.00 | 0.00 | 0.00 | 97 | 1012.7 |
| 20260906103101 | 23 | 0 | 0.0 | 3.2 | 0.00 | 0.00 | 0.00 | 97 | 1012.4 |
| 20260906101556 | 23 | 0 | 0.0 | 3.2 | 0.00 | 0.00 | 0.00 | 98 | 1012.3 |
| 20260906094609 | 23 | 0 | 0.0 | 1.6 | 0.00 | 0.00 | 0.00 | 97 | 1012.5 |
| 20260906093117 | 23 | 0 | 0.0 | 3.2 | 0.00 | 0.00 | 0.00 | 97 | 1012.4 |
| 20260906091559 | 23 | 180 | 0.0 | 3.2 | 0.00 | 0.00 | 0.00 | 97 | 1012.2 |
| 20260906090135 | 23 | 0 | 0.0 | 1.6 | 0.00 | 0.00 | 0.00 | 97 | 1012.2 |
| 20260906084620 | 23 | 0 | 0.0 | 3.2 | 0.00 | 0.00 | 0.00 | 96 | 1012.0 |
| 20260906083059 | 23 | 0 | 0.0 | 1.6 | 0.00 | 0.00 | 0.00 | 96 | 1011.8 |
| 20260906081602 | 23 | 0 | 0.0 | 3.2 | 0.00 | 0.00 | 0.00 | 96 | 1011.7 |
| 20260906080107 | 23 | 0 | 0.0 | 1.6 | 0.00 | 0.00 | 0.00 | 96 | 1011.8 |
| 20260906074603 | 23 | 0 | 0.0 | 3.2 | 0.00 | 0.00 | 0.00 | 96 | 1011.7 |
| 20260906073101 | 24 | 180 | 1.6 | 3.2 | 0.00 | 0.00 | 0.00 | 96 | 1011.8 |
| 20260906071559 | 24 | 0 | 0.0 | 1.6 | 0.00 | 0.00 | 0.00 | 96 | 1011.9 |
| 20260906070058 | 24 | 180 | 0.0 | 1.6 | 0.00 | 0.00 | 0.00 | 96 | 1011.8 |
| 20260906064602 | 24 | 0 | 0.0 | 1.6 | 0.00 | 0.00 | 0.00 | 96 | 1011.8 |
| 20260906063100 | 25 | 0 | 0.0 | 1.6 | 0.00 | 0.00 | 0.00 | 95 | 1011.5 |
| 20260906061606 | 25 | 180 | 0.0 | 1.6 | 0.00 | 0.00 | 0.00 | 95 | 1011.7 |
| 20260906054606 | 25 | 0 | 0.0 | 3.2 | 0.00 | 0.00 | 0.00 | 95 | 1012.0 |
| 20260906053119 | 25 | 0 | 0.0 | 3.2 | 0.00 | 0.00 | 0.00 | 95 | 1012.1 |
| 20260906051559 | 25 | 180 | 1.6 | 6.4 | 0.00 | 0.00 | 0.00 | 95 | 1012.3 |
| 20260906050101 | 25 | 183 | 1.6 | 4.8 | 0.00 | 0.00 | 0.00 | 95 | 1012.2 |
| 20260906044621 | 25 | 0 | 0.0 | 1.6 | 0.00 | 0.00 | 0.00 | 94 | 1012.2 |
| 20260906043101 | 25 | 293 | 1.6 | 3.2 | 0.00 | 0.00 | 0.00 | 94 | 1012.0 |
| 20260906041558 | 25 | 0 | 0.0 | 1.6 | 0.00 | 0.00 | 0.00 | 93 | 1012.3 |
| 20260906040108 | 26 | 293 | 1.6 | 3.2 | 0.00 | 0.00 | 0.00 | 94 | 1012.6 |
| 20260906034608 | 25 | 0 | 0.0 | 1.6 | 0.00 | 0.00 | 0.00 | 94 | 1012.8 |
| 20260906033103 | 26 | 8 | 0.0 | 3.2 | 0.00 | 0.00 | 0.00 | 93 | 1013.0 |
| 20260906031556 | 26 | 0 | 0.0 | 1.6 | 0.00 | 0.00 | 0.00 | 93 | 1013.1 |
| 20260906024624 | 26 | 232 | 1.6 | 4.8 | 0.00 | 0.03 | 0.00 | 93 | 1012.5 |
| 20260906023105 | 26 | 232 | 0.0 | 3.2 | 0.00 | 0.03 | 0.00 | 92 | 1012.2 |
| 20260906021600 | 26 | 232 | 1.6 | 4.8 | 0.00 | 0.03 | 0.00 | 91 | 1012.2 |
| 20260906020105 | 26 | 223 | 0.0 | 6.4 | 0.00 | 0.03 | 0.00 | 90 | 1011.9 |
| 20260906014604 | 26 | 201 | 3.2 | 9.7 | 0.00 | 0.03 | 0.00 | 91 | 1011.8 |
| 20260906013106 | 26 | 199 | 1.6 | 3.2 | 0.00 | 0.03 | 0.00 | 90 | 1011.9 |
| 20260906011604 | 27 | 199 | 0.0 | 3.2 | 0.00 | 0.03 | 0.00 | 88 | 1011.7 |
| 20260906010131 | 27 | 199 | 0.0 | 1.6 | 0.00 | 0.03 | 0.00 | 87 | 1011.7 |
| 20260906004605 | 28 | 0 | 0.0 | 1.6 | 0.00 | 0.03 | 0.00 | 85 | 1011.4 |
| 20260906003107 | 28 | 0 | 0.0 | 0.0 | 0.00 | 0.03 | 0.00 | 83 | 1011.3 |
| 20260906001609 | 28 | 199 | 1.6 | 4.8 | 0.00 | 0.03 | 0.00 | 82 | 1011.2 |
| 20260906000101 | 30 | 320 | 0.0 | 1.6 | 0.00 | 0.03 | 0.00 | 80 | 1011.4 |
| 20260905234557 | 30 | 0 | 0.0 | 1.6 | 0.00 | 0.03 | 0.00 | 77 | 1011.4 |
| 20260905233103 | 31 | 43 | 1.6 | 3.2 | 0.00 | 0.03 | 0.00 | 73 | 1011.5 |
| 20260905231600 | 31 | 43 | 1.6 | 3.2 | 0.00 | 0.03 | 0.00 | 69 | 1011.3 |
| 20260905230122 | 31 | 34 | 3.2 | 8.0 | 0.00 | 0.03 | 0.00 | 68 | 1011.5 |
| 20260905224604 | 31 | 54 | 0.0 | 9.7 | 0.00 | 0.03 | 0.00 | 68 | 1011.4 |
| 20260905223100 | 32 | 28 | 1.6 | 8.0 | 0.00 | 0.03 | 0.00 | 70 | 1011.6 |
| 20260905221601 | 32 | 107 | 1.6 | 6.4 | 0.00 | 0.03 | 0.00 | 69 | 1011.3 |
| 20260905220106 | 32 | 139 | 1.6 | 9.7 | 0.00 | 0.03 | 0.00 | 67 | 1011.5 |
| 20260905214601 | 32 | 43 | 4.8 | 11.3 | 0.00 | 0.15 | 0.00 | 67 | 1012.0 |
| 20260905213102 | 33 | 74 | 6.4 | 12.9 | 0.00 | 0.15 | 0.00 | 66 | 1012.1 |
| 20260905211559 | 32 | 161 | 3.2 | 12.9 | 0.00 | 0.15 | 0.00 | 67 | 1012.2 |
| 20260905210108 | 32 | 73 | 3.2 | 16.1 | 0.00 | 0.15 | 0.00 | 69 | 1012.2 |
| 20260905204607 | 32 | 358 | 4.8 | 11.3 | 0.00 | 0.58 | 0.00 | 67 | 1012.5 |
| 20260905203102 | 32 | 49 | 1.6 | 9.7 | 0.00 | 0.58 | 0.00 | 69 | 1012.7 |
| 20260905201608 | 32 | 22 | 3.2 | 14.5 | 0.00 | 0.58 | 0.00 | 69 | 1012.8 |
| 20260905194600 | 31 | 57 | 4.8 | 12.9 | 0.00 | 2.08 | 0.00 | 72 | 1012.9 |
| 20260905193057 | 31 | 115 | 9.7 | 14.5 | 0.00 | 2.08 | 0.00 | 72 | 1013.0 |
| 20260905191603 | 31 | 139 | 4.8 | 16.1 | 0.00 | 2.08 | 0.00 | 72 | 1013.0 |
| 20260905190104 | 31 | 60 | 6.4 | 17.7 | 0.00 | 2.08 | 0.00 | 71 | 1013.5 |
| 20260905184612 | 31 | 81 | 6.4 | 12.9 | 0.00 | 2.08 | 0.00 | 74 | 1013.8 |
| 20260905183114 | 31 | 103 | 6.4 | 17.7 | 0.00 | 2.08 | 0.00 | 73 | 1014.2 |
| 20260905181604 | 31 | 55 | 8.0 | 17.7 | 0.00 | 2.08 | 0.00 | 74 | 1014.3 |
| 20260905180105 | 31 | 43 | 1.6 | 14.5 | 0.00 | 2.08 | 0.00 | 76 | 1014.3 |
| 20260905174600 | 31 | 145 | 6.4 | 16.1 | 0.00 | 2.08 | 0.00 | 75 | 1014.6 |
| 20260905173059 | 31 | 45 | 6.4 | 14.5 | 0.00 | 2.08 | 0.00 | 74 | 1014.7 |
| 20260905171559 | 31 | 67 | 8.0 | 14.5 | 0.00 | 2.08 | 0.00 | 74 | 1014.8 |
| 20260905170112 | 31 | 34 | 4.8 | 11.3 | 0.00 | 2.08 | 0.00 | 71 | 1014.9 |
| 20260905164606 | 31 | 61 | 1.6 | 9.7 | 0.00 | 2.08 | 0.00 | 72 | 1015.0 |
| 20260905163058 | 31 | 46 | 3.2 | 14.5 | 0.00 | 2.08 | 0.00 | 74 | 1015.2 |
| 20260905161557 | 30 | 216 | 3.2 | 8.0 | 0.00 | 2.08 | 0.00 | 79 | 1015.1 |
| 20260905160055 | 30 | 227 | 3.2 | 9.7 | 0.00 | 2.08 | 0.00 | 79 | 1015.4 |
| 20260905154602 | 29 | 266 | 1.6 | 8.0 | 0.00 | 2.31 | 0.00 | 84 | 1015.2 |
| 20260905153058 | 28 | 173 | 4.8 | 9.7 | 0.00 | 2.31 | 0.00 | 85 | 1015.3 |
| 20260905151558 | 27 | 0 | 1.6 | 8.0 | 0.00 | 2.31 | 0.00 | 89 | 1015.3 |
| 20260905144559 | 26 | 0 | 1.6 | 8.0 | 0.00 | 2.31 | 0.00 | 98 | 1015.1 |
| 20260905143059 | 25 | 179 | 1.6 | 8.0 | 0.00 | 2.31 | 0.00 | 99 | 1015.1 |
| 20260905141605 | 25 | 205 | 1.6 | 4.8 | 0.00 | 2.31 | 0.00 | 99 | 1015.1 |
| 20260905140126 | 24 | 167 | 3.2 | 4.8 | 0.00 | 2.31 | 0.00 | 99 | 1014.9 |
| 20260905134607 | 24 | 0 | 0.0 | 3.2 | 0.00 | 2.31 | 0.00 | 99 | 1015.1 |
| 20260905133057 | 24 | 70 | 1.6 | 4.8 | 0.00 | 2.31 | 0.00 | 99 | 1015.1 |
| 20260905131625 | 23 | 345 | 0.0 | 3.2 | 0.00 | 2.31 | 0.00 | 99 | 1015.0 |
| 20260905130100 | 23 | 345 | 0.0 | 6.4 | 0.00 | 2.31 | 0.00 | 99 | 1015.0 |
| 20260905124605 | 23 | 345 | 1.6 | 4.8 | 0.00 | 2.31 | 0.00 | 99 | 1014.6 |
| 20260905123110 | 23 | 345 | 3.2 | 8.0 | 0.00 | 2.31 | 0.00 | 99 | 1014.5 |
| 20260905121602 | 23 | 345 | 1.6 | 4.8 | 0.00 | 2.31 | 0.00 | 99 | 1014.5 |
| 20260905120100 | 23 | 2 | 0.0 | 3.2 | 0.00 | 2.31 | 0.00 | 99 | 1014.3 |
| 20260905114559 | 23 | 0 | 0.0 | 3.2 | 0.00 | 2.31 | 0.00 | 99 | 1014.2 |
| 20260905113106 | 23 | 0 | 0.0 | 3.2 | 0.00 | 2.31 | 0.00 | 99 | 1014.4 |
| 20260905111607 | 23 | 354 | 0.0 | 3.2 | 0.00 | 2.31 | 0.00 | 99 | 1014.2 |